sat.trackr.live / text

‹ back to catalog

STARLINK-35181

NORAD 65666 · 2025-211Q

PAYLOAD ACTIVE UNKNOWN

§ Identity

Operator
Country
US
Launch date
2025-09-19
Launch site
AFWTR
Launch vehicle
Mass (kg)
RCS (m²)

Purposes: comms

External: N2YO · Heavens-Above · Gunter

§ Orbital elements

Epoch: 2026-05-25T02:43:16.402656Z

Period
95.64 min
Inclination
97.4480°
Eccentricity
0.0002285
Mean motion
15.05652106 rev/d
Perigee alt
547.9 km
Apogee alt
551.1 km
Semi-major
6,927.6 km
B*
4.1722e-4
RAAN
189.0633°
Arg perigee
105.2958°
Mean anomaly
254.8521°
Rev number
3,854

§ Raw data

STARLINK-351811 65666U 25211Q   26145.11338429  .00005967  00000+0  41722-3 0  99942 65666  97.4480 189.0633 0002285 105.2958 254.8521 15.05652106 38548

JSON: /api/v1/satellites/65666 · /tle

For live sub-satellite position, see the globe view (requires WebGL).

§ Visibility from observer

Set your observer location to see the next 7 days of passes ≥ 10°. The values pass through the URL so the page stays shareable.

No JS? Fill the form by hand. The geolocation button needs JavaScript.